Temperature
26 25 23 22 21 21 21 21 20 20 20 19 19 19 19 19 18 18 18 18 18 18 18 18 18 18 18 18 18 18 18 18 18 18 18 18 18 18 18 18 17 17 17
26 24 23 22 21 21 21 20 20 20 20 19 19 19 19 19 19 18 18 18 18 18 18 18 18 18 18 18 18 18 17 18 18 18 18 18 18 18 18 18 18 17 17
26 24 23 22 21 21 20 20 20 20 20 19 19 19 19 19 19 19 18 18 18 18 18 18 18 18 18 18 18 18 18 18 18 18 18 18 18 18 18 18 18 18 17
26 24 23 22 21 21 20 20 20 20 19 19 19 19 19 19 19 19 18 18 18 18 18 18 18 18 18 17 18 18 17 17 18 18 18 18 18 18 18 18 18 18 17
26 24 23 22 22 21 20 20 20 20 19 19 19 19 18 18 18 18 18 18 18 18 18 18 18 18 18 17 17 17 17 17 17 17 18 18 18 18 18 17 18 17 18
26 24 23 22 22 21 20 20 20 19 19 19 19 19 18 18 18 18 18 18 18 18 18 18 18 18 18 17 17 17 17 17 17 17 17 18 18 18 18 18 18 17 17
26 24 23 22 22 21 20 20 20 19 19 19 19 19 18 18 18 18 18 18 18 18 18 18 18 18 17 17 17 17 17 17 17 17 17 17 17 18 18 18 17 17 17
26 24 24 23 22 21 21 20 20 19 19 19 19 19 19 18 18 18 18 18 18 18 18 18 18 17 17 17 17 17 17 17 17 17 17 17 17 17 17 17 17 17 17
26 25 24 23 22 21 21 20 19 19 19 19 18 18 18 18 18 18 18 18 18 18 18 18 17 17 17 17 17 17 17 17 17 17 17 17 17 17 17 17 17 17 17
26 25 24 23 22 21 20 20 19 19 19 19 18 18 18 18 18 18 18 18 18 18 18 17 17 17 17 17 17 17 17 17 16 16 16 16 16 17 17 17 17 17 17
26 25 24 23 22 21 20 20 19 19 19 19 18 18 18 18 18 18 18 18 18 18 18 17 17 17 17 17 17 17 16 16 16 16 16 16 16 16 16 16 16 16 16
26 25 24 23 22 21 20 20 19 19 19 18 18 18 18 18 18 18 18 18 18 17 17 17 17 17 17 17 17 17 16 16 16 16 16 16 16 16 16 16 16 16 16
26 24 23 23 22 21 20 20 19 19 19 18 18 18 18 18 18 18 18 18 18 17 17 17 17 17 16 16 16 16 16 16 16 16 16 15 15 15 15 15 15 15 15
25 24 23 22 22 21 20 20 19 19 19 18 18 18 18 18 18 18 18 17 17 17 17 17 17 16 16 16 16 16 16 16 16 15 15 15 15 15 15 15 15 15 15
25 24 23 22 21 20 20 19 19 19 18 18 18 18 18 18 18 17 17 17 17 17 17 16 16 16 16 16 15 15 15 15 15 15 15 15 15 15 14 14 14 14 14
24 23 22 21 21 20 20 19 19 18 18 18 18 17 17 17 17 17 17 17 16 16 16 16 16 16 15 15 15 15 15 15 15 15 14 14 14 14 14 14 14 14 13
24 23 22 21 20 20 19 19 18 18 18 18 18 17 17 17 17 17 17 16 16 16 16 16 15 15 15 15 15 15 15 14 14 14 14 14 14 14 14 14 13 13 13
24 23 22 21 20 19 19 19 18 18 18 17 17 17 17 17 17 17 16 16 16 16 16 15 15 15 15 15 14 14 14 14 14 14 14 14 13 13 13 13 13 13 12
24 23 22 21 20 19 18 18 18 18 17 17 17 17 17 17 16 16 16 16 15 15 15 15 15 15 14 14 14 14 14 14 13 13 13 13 13 13 12 12 12 12 12
23 22 21 20 20 19 18 18 18 17 17 17 17 17 16 16 16 16 16 15 15 15 15 14 14 14 14 14 14 14 13 13 13 13 12 12 12 12 12 12 12 11 11
22 21 21 20 19 18 18 18 17 17 17 17 16 16 16 16 16 15 15 15 15 14 14 14 14 14 14 14 13 13 13 13 13 12 12 12 12 12 11 11 11 11 11
21 21 20 19 18 18 17 17 17 17 17 16 16 16 16 15 15 15 15 14 14 14 14 13 13 13 13 13 13 13 13 12 12 12 12 12 11 11 11 11 11 10 10
20 20 19 18 18 17 17 17 17 16 16 16 16 15 15 15 14 14 14 14 14 14 13 13 13 13 13 12 12 12 12 12 12 12 11 11 11 11 11 10 10 10 10
19 19 18 17 17 17 16 16 16 16 16 16 15 15 14 14 14 14 13 13 13 13 13 13 13 12 12 12 12 12 12 12 11 11 11 11 10 10 10 10 10 9 9
18 18 17 17 16 16 16 16 16 16 15 15 15 14 14 13 13 13 13 13 13 13 13 12 12 12 12 12 12 11 11 11 11 11 10 10 10 10 9 9 9 9 9
17 17 16 16 16 16 15 15 15 15 15 14 14 13 13 13 13 13 12 12 12 12 12 12 12 11 11 11 11 11 11 11 10 10 10 10 9 9 9 9 9 8 8
Wind_Speed
12 13 14 13 13 12 11 11 10 9 8 7 6 5 5 4 3 4 8 9 9 9 6 3 4 3 3 4 3 2 3 3 2 1 1 1 3 4 4 3 3 5 8
12 13 13 13 13 13 12 11 10 10 9 7 5 4 4 4 4 3 6 9 9 8 7 4 3 4 3 4 3 3 2 3 3 2 1 1 2 2 5 4 5 5 6
14 14 14 13 13 13 13 12 10 10 10 8 6 5 4 3 3 4 5 6 8 9 7 7 5 3 4 4 4 4 4 3 3 3 2 2 2 1 3 5 5 5 4
13 14 13 13 13 12 12 10 10 9 9 9 8 8 6 6 6 5 5 6 7 8 8 7 6 4 4 4 6 6 4 4 3 3 3 3 2 2 1 2 2 4 4
12 13 12 12 11 12 11 11 10 9 9 9 8 7 6 5 4 4 6 6 6 7 7 7 5 4 4 5 5 4 4 4 4 3 3 3 3 4 3 2 2 2 3
11 11 11 11 10 10 10 11 10 10 9 9 8 7 7 6 5 5 5 6 5 5 6 6 5 5 4 5 4 4 5 4 4 4 3 2 2 3 3 4 4 3 2
11 11 10 11 10 11 11 11 11 10 9 9 8 7 7 6 6 5 5 5 4 4 5 5 5 5 5 5 4 5 5 5 5 4 4 3 3 3 3 3 3 3 2
10 10 10 9 9 10 10 11 11 9 9 8 7 6 6 5 4 5 4 4 4 4 5 5 5 5 5 5 4 4 5 4 5 6 5 3 3 3 3 3 3 3 2
11 11 10 9 9 9 9 10 10 9 8 8 6 4 5 4 4 3 4 3 2 3 4 4 5 5 5 5 4 4 5 4 5 5 5 4 3 3 3 3 3 4 4
10 11 10 10 9 9 8 8 9 8 7 6 5 5 5 4 3 3 3 3 2 2 2 3 4 4 4 4 5 4 4 4 4 4 3 3 3 2 2 2 2 3 3
11 10 9 10 10 10 10 9 8 7 7 6 5 4 4 4 4 3 3 3 2 2 3 2 2 3 3 3 4 4 4 5 4 4 3 3 2 2 2 2 2 2 2
10 11 10 10 10 10 10 9 8 8 7 6 5 4 3 3 3 3 2 2 2 1 2 2 2 2 2 2 3 4 3 3 3 3 3 3 3 3 3 2 2 2 2
11 11 10 9 9 9 9 9 8 8 7 7 6 4 3 3 2 2 2 2 1 1 1 1 1 1 1 1 1 2 2 2 2 2 3 2 2 2 2 2 2 2 2
10 10 9 8 8 8 8 8 8 7 7 6 5 4 3 3 2 2 2 2 2 2 1 1 1 1 1 1 1 1 1 1 1 1 1 1 2 2 3 2 2 2 2
11 10 9 8 7 7 7 7 7 7 6 6 5 4 4 3 3 3 3 2 2 2 2 2 2 1 1 1 1 1 2 2 2 1 1 0 1 1 1 1 1 2 2
10 10 10 9 8 7 7 7 7 7 6 6 5 5 4 3 3 3 3 3 3 3 3 2 2 2 2 3 3 3 2 3 2 2 2 2 3 4 4 4 5 3 3
10 10 10 9 8 7 7 8 7 7 7 6 6 6 5 4 4 4 4 4 4 3 3 3 3 3 4 5 5 4 3 3 3 3 2 2 3 3 3 5 6 7 6
10 10 10 10 9 8 8 8 8 7 7 6 6 5 5 5 4 4 5 4 4 3 3 3 3 3 4 5 5 5 4 4 3 3 3 3 3 2 4 5 6 6 6
9 10 11 11 10 10 9 8 8 8 7 6 6 5 5 5 5 5 4 4 4 3 3 3 3 3 3 3 3 4 4 4 4 3 4 3 3 4 4 5 6 6 5
9 10 11 11 10 10 10 9 8 7 6 5 5 5 5 5 5 5 5 4 4 3 3 3 3 3 3 3 2 3 3 4 3 3 4 5 5 5 4 5 5 6 5
9 9 10 10 10 9 8 7 7 6 6 6 6 5 5 4 5 4 4 4 4 3 3 3 3 3 3 4 4 3 2 3 3 3 3 4 6 6 5 4 3 5 5
8 9 9 9 8 8 8 7 6 6 6 6 6 5 4 4 4 4 3 3 3 3 3 3 3 3 3 4 4 4 3 3 3 3 4 4 6 6 6 5 6 6 5
7 7 9 9 8 7 7 7 6 6 6 6 5 5 4 3 4 3 3 2 2 2 2 2 2 3 3 4 7 6 5 5 4 4 6 7 7 6 5 6 7 5 3
7 7 8 8 7 6 6 6 6 6 6 6 5 4 4 4 3 2 2 1 1 1 1 1 2 3 3 3 3 3 4 5 5 6 7 7 5 4 5 5 4 3 3
6 7 6 6 7 7 6 6 7 6 6 5 5 4 4 4 4 4 4 3 4 3 1 1 1 1 2 1 1 2 2 3 4 4 4 3 3 3 3 3 3 3 3
6 7 7 6 6 7 6 6 6 5 6 5 4 3 3 4 4 4 5 10 8 8 8 6 5 4 4 3 4 4 5 6 5 4 3 3 3 4 4 4 4 3 3
Wind_Direction
162 156 158 162 163 162 166 171 177 171 171 177 182 190 183 179 184 171 167 179 190 184 193 191 168 195 182 185 192 196 201 213 215 222 211 226 214 200 194 185 179 186 192
160 156 160 167 170 171 173 176 180 175 179 181 179 183 181 186 192 182 176 186 188 183 187 189 195 192 190 193 204 203 216 226 210 204 192 237 246 238 220 191 190 199 195
165 162 168 173 177 178 180 183 182 177 183 177 180 185 177 191 187 183 186 192 186 192 198 185 201 196 197 192 203 205 214 236 242 218 199 203 211 257 246 215 198 187 192
163 165 172 176 181 181 181 178 176 177 182 181 186 187 189 193 195 189 187 190 192 198 199 193 198 202 219 197 203 203 213 220 240 250 231 220 205 190 267 276 208 181 196
160 165 172 175 177 178 178 175 173 180 184 188 187 192 199 201 196 194 184 188 189 197 203 197 195 202 219 218 222 199 210 222 232 241 232 224 227 212 210 233 246 222 203
149 152 164 164 170 175 174 171 172 178 181 187 187 193 199 197 202 202 188 193 189 192 201 200 201 209 221 223 221 218 217 232 246 255 257 240 226 224 217 216 219 224 233
144 151 159 164 170 172 172 170 170 176 180 187 190 194 200 199 208 214 204 199 194 196 201 202 198 208 215 215 210 216 227 224 236 246 258 258 250 236 229 213 222 228 235
148 150 157 161 166 169 169 167 167 172 177 183 191 196 198 203 212 215 215 210 206 199 196 199 202 203 209 220 209 214 222 223 230 239 241 253 261 252 228 217 217 229 234
143 145 151 154 160 164 163 161 162 165 171 176 176 189 195 204 216 213 215 223 224 214 201 203 208 209 212 222 215 221 225 217 223 236 236 242 254 258 248 231 216 214 226
145 144 144 149 150 152 150 149 152 156 160 163 171 179 181 187 198 206 211 213 216 216 205 201 208 210 216 220 216 222 226 221 227 233 238 242 253 262 255 247 251 225 212
150 145 143 140 139 141 143 142 146 151 155 158 166 175 176 183 185 191 202 208 211 206 209 207 205 207 213 217 216 225 221 219 226 230 217 219 238 269 269 245 236 230 199
145 143 144 141 142 145 144 146 154 158 160 161 166 170 167 170 176 183 189 192 189 195 190 195 199 213 218 220 217 228 222 215 223 230 224 225 223 230 252 251 244 230 218
143 144 148 146 145 143 145 149 157 154 154 156 157 153 157 156 162 164 140 124 122 126 130 153 187 211 219 235 228 223 220 220 224 230 228 230 225 239 242 228 228 230 218
146 148 142 137 137 139 141 149 153 149 149 144 143 143 151 151 144 135 130 139 144 135 123 109 86 60 17 347 286 197 189 189 185 209 228 240 221 221 232 228 220 212 193
151 149 145 142 139 139 142 146 141 136 135 138 143 145 147 140 142 139 136 137 135 126 99 89 74 54 40 7 10 116 138 123 99 78 65 28 97 105 167 203 196 188 170
159 157 155 151 150 151 152 146 140 138 137 140 136 133 132 132 130 126 123 110 99 92 90 87 83 68 39 33 67 99 97 98 103 94 78 76 79 93 97 94 87 98 150
164 164 160 156 153 152 147 145 142 138 138 132 128 129 127 122 117 121 112 104 94 83 78 81 83 76 50 60 73 87 99 88 81 76 78 83 83 94 111 101 92 77 78
162 160 156 151 149 145 140 138 139 137 135 132 132 129 125 124 121 113 104 98 92 87 82 77 78 79 61 71 90 93 101 91 81 77 87 88 79 72 106 106 98 82 62
146 147 151 150 147 144 143 142 141 140 143 140 133 130 131 130 122 113 107 105 105 101 95 92 89 85 65 63 99 121 121 110 99 88 75 82 82 72 108 122 114 105 90
129 139 142 141 140 139 142 146 147 146 146 138 129 126 128 126 123 122 119 121 123 119 112 100 96 98 84 65 81 134 141 127 116 103 90 76 72 73 91 117 122 121 113
122 129 133 135 134 134 139 146 143 143 138 131 128 125 123 122 126 126 130 135 132 127 127 116 107 98 84 81 74 84 135 129 119 111 100 82 79 76 75 95 112 126 124
119 127 126 124 127 134 139 139 131 126 125 127 128 129 131 136 129 126 133 139 146 146 138 129 117 103 96 89 79 81 94 97 107 109 109 105 103 91 86 89 99 110 111
116 118 125 123 123 129 134 136 127 126 126 124 121 120 121 110 116 129 134 144 167 167 158 155 142 126 121 111 96 89 88 96 102 99 109 121 122 107 96 98 106 116 120
118 118 122 130 128 127 126 126 125 123 126 129 128 124 119 116 105 93 92 101 75 97 107 93 105 120 121 116 121 123 117 117 118 119 117 118 109 100 103 115 120 110 103
106 116 120 123 126 120 113 113 119 128 133 136 134 135 133 123 101 74 43 54 57 47 57 67 77 106 113 80 76 145 153 146 129 135 144 148 142 130 122 119 108 105 109
105 110 113 114 116 115 114 115 120 131 136 138 139 139 134 128 123 111 78 49 58 63 62 63 81 79 90 97 94 96 104 118 134 139 149 145 142 140 141 141 133 121 113
Height
1518 1521 1524 1527 1530 1532 1535 1537 1540 1542 1544 1547 1549 1552 1555 1557 1560 1561 1563 1565 1566 1568 1569 1572 1573 1575 1577 1578 1580 1581 1582 1583 1584 1585 1586 1586 1587 1587 1588 1588 1589 1590 1590
1516 1519 1523 1526 1528 1530 1533 1535 1538 1540 1542 1545 1548 1550 1553 1555 1558 1560 1561 1563 1564 1566 1568 1569 1571 1573 1575 1576 1578 1579 1580 1581 1583 1584 1584 1585 1586 1585 1586 1587 1587 1588 1588
1513 1517 1521 1524 1526 1528 1531 1533 1535 1538 1540 1543 1546 1549 1551 1553 1555 1557 1559 1561 1562 1564 1565 1567 1569 1571 1573 1574 1575 1577 1578 1580 1581 1582 1583 1583 1583 1583 1584 1584 1585 1585 1586
1511 1515 1519 1522 1525 1527 1529 1532 1534 1536 1538 1541 1544 1546 1548 1550 1552 1554 1556 1558 1560 1561 1563 1565 1567 1569 1570 1572 1573 1574 1576 1577 1578 1579 1580 1581 1581 1582 1582 1583 1583 1583 1583
1509 1513 1517 1520 1523 1525 1528 1530 1532 1534 1536 1539 1542 1544 1547 1549 1551 1553 1554 1555 1557 1558 1560 1562 1564 1566 1567 1569 1570 1572 1573 1575 1576 1576 1577 1578 1579 1579 1580 1580 1581 1581 1581
1508 1512 1516 1519 1521 1524 1526 1528 1530 1532 1534 1537 1540 1542 1545 1547 1549 1550 1552 1553 1554 1556 1558 1559 1561 1563 1564 1566 1567 1568 1570 1571 1572 1573 1574 1575 1576 1576 1577 1577 1577 1578 1578
1507 1511 1514 1517 1519 1522 1524 1526 1528 1530 1533 1535 1538 1540 1542 1544 1546 1548 1550 1551 1552 1553 1555 1556 1557 1559 1561 1562 1564 1565 1567 1568 1569 1570 1570 1571 1572 1573 1573 1574 1574 1575 1575
1507 1510 1513 1515 1518 1520 1523 1525 1527 1529 1531 1534 1536 1538 1540 1542 1544 1546 1548 1549 1550 1551 1552 1554 1555 1556 1557 1559 1560 1561 1563 1564 1565 1566 1567 1568 1568 1569 1570 1570 1571 1571 1572
1506 1509 1512 1515 1517 1519 1521 1524 1526 1528 1530 1532 1534 1537 1538 1540 1542 1544 1545 1547 1548 1549 1550 1551 1552 1553 1554 1555 1556 1558 1559 1560 1561 1562 1563 1564 1564 1565 1565 1566 1567 1568 1568
1506 1509 1512 1514 1517 1519 1521 1523 1525 1526 1529 1531 1533 1535 1537 1538 1540 1542 1543 1544 1545 1546 1547 1548 1549 1550 1551 1552 1553 1554 1555 1556 1556 1557 1558 1559 1560 1560 1561 1562 1563 1564 1564
1504 1508 1512 1514 1517 1519 1521 1522 1524 1526 1528 1530 1532 1534 1536 1537 1538 1540 1541 1542 1543 1544 1544 1545 1546 1547 1548 1549 1549 1550 1551 1552 1553 1553 1554 1554 1555 1555 1556 1557 1558 1559 1560
1504 1509 1512 1515 1517 1519 1521 1523 1524 1526 1528 1530 1531 1533 1534 1535 1536 1538 1539 1540 1541 1541 1542 1543 1543 1544 1545 1546 1546 1546 1547 1548 1548 1549 1550 1550 1550 1551 1551 1552 1553 1554 1555
1504 1509 1512 1515 1517 1519 1521 1523 1525 1526 1528 1529 1530 1532 1533 1534 1535 1536 1537 1538 1539 1539 1540 1540 1541 1542 1542 1543 1543 1543 1544 1544 1545 1545 1545 1546 1546 1546 1547 1547 1549 1550 1551
1504 1508 1512 1514 1517 1519 1521 1522 1524 1525 1527 1528 1529 1530 1532 1533 1534 1534 1535 1536 1537 1537 1538 1539 1539 1540 1540 1540 1540 1541 1541 1541 1541 1541 1541 1542 1542 1542 1543 1543 1545 1546 1547
1504 1508 1511 1514 1516 1518 1520 1522 1523 1525 1526 1527 1529 1530 1531 1531 1532 1533 1534 1535 1535 1536 1537 1537 1537 1538 1538 1538 1538 1538 1539 1538 1538 1538 1539 1539 1539 1539 1539 1540 1541 1542 1543
1503 1507 1510 1512 1515 1517 1519 1521 1522 1524 1525 1527 1528 1529 1530 1531 1531 1532 1533 1534 1534 1535 1535 1536 1536 1536 1536 1536 1536 1536 1537 1537 1536 1536 1536 1537 1537 1537 1537 1538 1538 1539 1540
1501 1505 1508 1511 1514 1516 1518 1520 1522 1524 1525 1527 1528 1529 1530 1530 1531 1532 1532 1533 1533 1534 1534 1534 1534 1534 1534 1534 1535 1535 1535 1535 1535 1535 1535 1535 1535 1535 1535 1536 1536 1537 1538
1499 1503 1506 1510 1513 1515 1517 1519 1521 1523 1525 1526 1528 1529 1530 1530 1531 1531 1532 1532 1533 1533 1533 1533 1533 1533 1533 1534 1534 1534 1533 1533 1533 1534 1534 1534 1534 1534 1534 1534 1534 1535 1536
1497 1501 1505 1508 1512 1515 1517 1519 1521 1523 1525 1526 1527 1528 1529 1530 1530 1531 1531 1532 1532 1532 1532 1532 1533 1533 1533 1533 1533 1533 1533 1533 1533 1533 1533 1533 1533 1533 1533 1533 1533 1534 1535
1497 1501 1504 1507 1511 1514 1516 1519 1520 1522 1524 1525 1526 1528 1529 1529 1529 1530 1530 1531 1531 1532 1532 1532 1532 1532 1532 1533 1533 1533 1533 1532 1532 1532 1532 1533 1533 1533 1533 1533 1534 1534 1535
1498 1501 1504 1507 1510 1513 1516 1518 1520 1522 1523 1524 1526 1527 1528 1529 1529 1530 1530 1530 1531 1531 1531 1532 1532 1532 1532 1532 1532 1532 1532 1532 1532 1532 1532 1532 1533 1533 1533 1533 1534 1534 1535
1500 1502 1504 1507 1509 1512 1515 1517 1519 1520 1522 1523 1525 1526 1527 1528 1529 1529 1529 1530 1530 1530 1531 1531 1531 1531 1531 1531 1531 1531 1532 1532 1532 1532 1532 1532 1533 1533 1533 1534 1534 1535 1536
1501 1503 1505 1507 1509 1511 1514 1516 1518 1519 1521 1522 1524 1525 1526 1527 1527 1528 1528 1529 1529 1530 1530 1530 1530 1530 1530 1530 1530 1530 1530 1531 1531 1531 1532 1532 1533 1533 1533 1534 1535 1535 1536
1501 1503 1505 1507 1509 1511 1513 1515 1517 1518 1520 1521 1523 1524 1525 1525 1526 1527 1527 1528 1528 1528 1529 1529 1529 1528 1528 1528 1528 1529 1530 1530 1530 1531 1531 1532 1532 1533 1533 1534 1535 1535 1536
1501 1503 1505 1507 1508 1510 1512 1513 1515 1517 1519 1520 1522 1523 1524 1525 1525 1525 1526 1526 1527 1527 1527 1527 1527 1527 1526 1527 1527 1528 1528 1529 1529 1530 1530 1531 1531 1532 1533 1533 1534 1535 1536
1501 1503 1504 1506 1507 1508 1511 1512 1514 1516 1517 1519 1520 1521 1523 1523 1523 1524 1524 1525 1525 1526 1526 1525 1525 1525 1525 1525 1526 1526 1527 1527 1528 1529 1529 1530 1531 1531 1532 1533 1533 1534 1535